{"data":{"norad_id":67041,"epoch":"2026-05-24T21:33:11.107008Z","epoch_age_seconds":79785,"freshness":"FRESH","line1":"1 67041U 25294M   26144.89804522  .00023107  00000+0  84550-3 0  9992","line2":"2 67041  42.9995 327.7506 0000827 297.4257  62.6511 15.27622042 26450","mean_motion":15.27622042,"eccentricity":8.27e-5,"inclination_deg":42.9995,"raan_deg":327.7506,"arg_perigee_deg":297.4257,"mean_anomaly_deg":62.6511,"bstar":0.0008455,"rev_number":2645,"period_min":94.264154379097,"perigee_km":482.35580037494,"apogee_km":483.49061973368,"semimajor_km":6861.0602100543,"source":"CELESTRAK","updated_at":"2026-05-25T13:38:21.438540Z"}}